This demonstration page uses our WeatherBlox Daily Observations layout. Learn more.

Left ArrowRight Arrow

Hourly Observations for January 4, 2019

Temp ( °F °C ) Dew Point ( °F °C ) Humidity (%) Winds ( mph kmh ) Pressure ( in mb ) Visibility ( mi km ) Precip ( " mm )
12:51 am 00:51 Clear 27 -2.8 26 -3.3 96 96 SE 3 6 30.26 1025 10 16 N/A
1:51 am 01:51 Clear 27 -2.8 26 -3.3 96 96 ENE 5 7 30.26 1025 10 16 N/A
2:51 am 02:51 Clear 24 -4.4 23 -5 96 96 SW 3 6 30.25 1024 10 16 N/A
3:51 am 03:51 Clear 24 -4.4 22 -5.6 91 91 NE 3 6 30.23 1024 10 16 N/A
4:51 am 04:51 Clear 25 -3.9 23 -5 92 92 E 7 11 30.23 1024 10 16 N/A
5:51 am 05:51 Clear 25 -3.9 22 -5.6 88 88 E 5 7 30.24 1024 10 16 N/A
6:51 am 06:51 Clear 25 -3.9 23 -5 92 92 ESE 3 6 30.24 1024 10 16 N/A
7:51 am 07:51 Sunny 25 -3.9 23 -5 92 92 N N/A 30.25 1025 10 16 N/A
8:51 am 08:51 Sunny 30 -1.1 27 -2.8 88 88 SSE 10 17 30.27 1025 10 16 N/A
9:51 am 09:51 Sunny 38 3.3 30 -1.1 73 73 SE 10 17 30.26 1025 10 16 N/A
10:51 am 10:51 Sunny 42 5.6 31 -0.6 65 65 ESE 9 15 30.22 1024 10 16 N/A
11:51 am 11:51 Sunny 45 7.2 31 -0.6 58 58 ESE 9 15 30.19 1022 10 16 N/A
12:51 pm 12:51 Sunny 49 9.4 34 1.1 56 56 ESE 8 13 30.15 1021 10 16 N/A
1:51 pm 13:51 Sunny 51 10.6 32 undefined 48 48 SE 9 15 30.13 1020 10 16 N/A
2:51 pm 14:51 Sunny 53 11.7 33 0.6 47 47 ESE 7 11 30.11 1020 10 16 N/A
3:51 pm 15:51 Sunny 54 12.2 34 1.1 47 47 SSE 7 11 30.10 1019 10 16 N/A
4:51 pm 16:51 Sunny 52 11.1 35 1.7 53 53 SSW 6 9 30.11 1020 10 16 N/A
5:51 pm 17:51 Clear 44 6.7 36 2.2 73 73 N N/A 30.13 1020 10 16 N/A
6:51 pm 18:51 Clear 41 5 36 2.2 82 82 NE 6 9 30.14 1021 10 16 N/A
7:51 pm 19:51 Clear 38 3.3 34 1.1 86 86 ENE 6 9 30.15 1021 10 16 N/A
8:51 pm 20:51 Clear 39 3.9 34 1.1 82 82 E 9 15 30.14 1021 10 16 N/A
9:51 pm 21:51 Clear 36 2.2 32 undefined 86 86 N N/A 30.15 1021 10 16 N/A
10:51 pm 22:51 Clear 34 1.1 32 undefined 92 92 NW 5 7 30.15 1021 10 16 N/A
11:51 pm 23:51 Clear 31 -0.6 30 -1.1 96 96 E 3 6 30.14 1021 10 16 N/A

Powered by AerisWeather